Location: Newark
(0.5300°S, 127.4800°E)
Time: 07:44:27
(UTC+00:00)

Vanguard 1 Rocket - Visible Passes

Search period start: 20 September 2019 00:00
Search period end: 30 September 2019 00:00
Orbit: 651 x 4225 km, 34.3° (Epoch: 19 September)

Date Brightness Start Highest point End Pass type
(mag) Time Alt. Az. Time Alt. Az. Time Alt. Az.
20 Sep 11.0 10:59:12 10° NW 11:05:28 12° NNW 11:10:41 10° N visible
20 Sep 9.9 18:39:01 10° SE 18:39:01 10° SE 18:39:04 10° SE visible
21 Sep 11.1 09:33:58 10° WNW 09:50:12 22° NNW 10:01:58 10° NNE visible
21 Sep 9.2 19:49:18 13° SSW 19:49:18 13° SSW 19:51:30 10° S visible
22 Sep 11.0 11:06:53 10° NNW 11:09:45 11° NNW 11:12:22 10° N visible
23 Sep 11.1 09:40:05 10° WNW 09:54:00 18° NNW 10:04:29 10° NNE visible
25 Sep 11.1 09:46:28 10° NW 09:58:11 16° NNW 10:07:18 10° NNE visible
26 Sep 10.8 11:16:58 10° NNW 11:18:53 10° N 11:20:40 10° N visible
27 Sep 11.0 09:52:37 10° NW 10:02:42 14° NNW 10:10:43 10° NNE visible
27 Sep 10.8 12:34:12 10° NNW 12:35:54 11° N 12:35:54 11° N visible
28 Sep 10.7 11:18:24 10° NNW 11:23:28 12° N 11:27:42 10° NNE visible
29 Sep 11.0 09:57:52 10° NW 10:07:25 14° N 10:14:59 10° NNE visible
29 Sep 10.7 12:34:58 10° NNW 12:38:33 14° N 12:38:33 14° N visible
